Simultaneous Nadir Overpasses (SNOs) Predictions

Prediction of SNOs between GOES-16 and TERRA Satellite Orbit:

Table of predicted SNOs for the next 14.0 days since TLE Epoch: 6/17/2023
Index Date Time (GOES-16) GOES-16 Lat,Lon TERRA Lat,Lon Distance(km) Time Diff (sec)
1 06/17/2023 15:03:23 0.00, -75.21 -0.10, -74.80 46.00 80
2 06/19/2023 14:47:02 -0.01, -75.22 -0.90, -70.85 495.49 80
3 06/20/2023 03:10:02 0.01, -75.22 -0.11, -75.80 66.25 80
4 06/22/2023 02:51:01 0.02, -75.24 0.72, -71.85 384.31 80
5 06/22/2023 15:13:52 -0.02, -75.25 0.29, -76.76 171.86 80
6 06/24/2023 14:54:51 -0.03, -75.27 -0.56, -72.81 279.87 80
7 06/25/2023 03:17:51 0.03, -75.28 -0.50, -77.75 281.20 80
8 06/27/2023 02:58:50 0.03, -75.31 0.38, -73.81 171.62 80
9 06/27/2023 15:21:40 -0.03, -75.33 0.69, -78.70 384.10 80
10 06/29/2023 15:02:38 -0.03, -75.36 -0.14, -74.75 69.21 80
11 06/30/2023 03:25:38 0.02, -75.37 -0.89, -79.69 491.49 80
